ELY777 LLBG-FAOR

Flight info

Callsign ELY777
Flight time N/A
Altitude 36000
Route TOMAL DCT NURIT J10 NALSO R650 SHM/N0484F370 R650 HGD V608 NABED A727 SML W605 ALKED P557 NUBAR M568 KASAB/N0485F380 M568 DEKUM UB12 GOM/N0483F390 UB607 BJA/N0486F380 UB527 KMI UA409 XODKU/N0481F400 UA409 VLS UM215 TAVLA UZ27 EVIPI UZ22 AVAGO AVAGO1C
Aircraft B772/H-SDE2E3FGHIJ5LORVWXY/LB1D1

Departure

Time 2026-05-01 07:50
Airport Ben Gurion International Airport (LLBG)

Arrival

Time N/A
Airport O.R. Tambo International Airport (FAOR)
Time Latitude Longitude Altitude Speed Heading
2026-05-01 07:23 32.00426 34.87620 137 ft 0 kts 235°
2026-05-01 07:34 32.00431 34.87628 137 ft 2 kts 241°
2026-05-01 07:34 32.00435 34.87639 137 ft 2 kts 252°
2026-05-01 07:35 32.00439 34.87656 137 ft 2 kts 264°
2026-05-01 07:35 32.00439 34.87674 137 ft 2 kts 276°
2026-05-01 07:35 32.00436 34.87691 137 ft 2 kts 289°
2026-05-01 07:35 32.00430 34.87709 137 ft 2 kts 301°
2026-05-01 07:36 32.00421 34.87723 137 ft 2 kts 314°
2026-05-01 07:36 32.00409 34.87735 137 ft 2 kts 327°
2026-05-01 07:36 32.00395 34.87744 138 ft 2 kts 339°
2026-05-01 07:36 32.00380 34.87749 138 ft 2 kts 352°
2026-05-01 07:37 32.00349 34.87747 138 ft 2 kts 18°
2026-05-01 07:37 32.00335 34.87740 139 ft 2 kts 30°
2026-05-01 07:37 32.00322 34.87730 139 ft 2 kts 35°
2026-05-01 07:38 32.00311 34.87721 139 ft 0 kts 33°
2026-05-01 07:38 32.00310 34.87721 139 ft 0 kts 33°
2026-05-01 07:40 32.00311 34.87722 139 ft 0 kts 33°
2026-05-01 07:40 32.00326 34.87733 139 ft 5 kts 32°
2026-05-01 07:41 32.00382 34.87773 138 ft 13 kts 31°
2026-05-01 07:41 32.00474 34.87838 136 ft 19 kts 30°
2026-05-01 07:41 32.00725 34.88018 136 ft 24 kts 31°
2026-05-01 07:42 32.00873 34.88126 136 ft 27 kts 33°
2026-05-01 07:42 32.01020 34.88233 136 ft 26 kts 30°
2026-05-01 07:42 32.01165 34.88334 136 ft 20 kts 33°
2026-05-01 07:42 32.01242 34.88393 137 ft 13 kts 35°
2026-05-01 07:43 32.01317 34.88464 136 ft 15 kts 44°
2026-05-01 07:43 32.01387 34.88561 137 ft 15 kts 52°
2026-05-01 07:43 32.01483 34.88774 139 ft 16 kts 79°
2026-05-01 07:44 32.01527 34.89034 143 ft 15 kts 81°
2026-05-01 07:44 32.01568 34.89295 145 ft 16 kts 79°
2026-05-01 07:45 32.01586 34.89427 148 ft 16 kts 81°
2026-05-01 07:45 32.01604 34.89556 149 ft 16 kts 78°
2026-05-01 07:45 32.01619 34.89625 149 ft 8 kts 69°
2026-05-01 07:45 32.01656 34.89686 149 ft 10 kts 36°
2026-05-01 07:46 32.01717 34.89730 149 ft 11 kts 30°
2026-05-01 07:46 32.01792 34.89768 149 ft 11 kts
2026-05-01 07:46 32.01845 34.89703 149 ft 4 kts 263°
2026-05-01 07:47 32.01844 34.89698 149 ft 0 kts 263°
2026-05-01 07:49 32.01836 34.89631 149 ft 31 kts 260°
2026-05-01 07:49 32.01751 34.89119 143 ft 98 kts 259°
2026-05-01 07:50 32.01607 34.88145 137 ft 150 kts 262°
2026-05-01 07:50 32.01171 34.85543 1035 ft 168 kts 257°
2026-05-01 07:50 32.00904 34.84236 1501 ft 175 kts 257°
2026-05-01 07:51 32.00605 34.82785 1741 ft 189 kts 257°
2026-05-01 07:51 32.00288 34.81224 2009 ft 202 kts 257°
2026-05-01 07:51 31.99946 34.79578 2380 ft 208 kts 257°
2026-05-01 07:52 31.99263 34.76031 3013 ft 235 kts 263°
2026-05-01 07:52 31.99353 34.74071 3366 ft 247 kts 287°
2026-05-01 07:52 31.99974 34.72100 3902 ft 253 kts 291°
2026-05-01 07:53 32.01205 34.68293 5211 ft 252 kts 289°
2026-05-01 07:53 32.01798 34.66374 5597 ft 263 kts 289°
2026-05-01 07:53 32.02411 34.64419 6220 ft 263 kts 289°
2026-05-01 07:53 32.02987 34.62460 6898 ft 259 kts 281°
2026-05-01 07:54 32.04169 34.58512 7874 ft 270 kts 311°
2026-05-01 07:55 32.07096 34.56813 7936 ft 275 kts 357°
2026-05-01 07:55 32.10519 34.58614 7941 ft 279 kts 53°
2026-05-01 07:56 32.10393 34.64899 7961 ft 280 kts 127°
2026-05-01 07:56 32.08252 34.68525 8065 ft 278 kts 126°
2026-05-01 07:57 32.07136 34.70387 7982 ft 277 kts 127°
2026-05-01 07:57 32.04895 34.74154 7955 ft 275 kts 126°
2026-05-01 07:58 32.02577 34.77928 7946 ft 273 kts 128°
2026-05-01 07:58 32.00305 34.81706 7981 ft 274 kts 127°
2026-05-01 07:59 31.97963 34.85474 7935 ft 277 kts 128°
2026-05-01 07:59 31.96033 34.89502 8110 ft 292 kts 113°
2026-05-01 08:00 31.92856 34.98382 10265 ft 305 kts 115°
2026-05-01 08:01 31.90037 35.05761 10913 ft 352 kts 115°
2026-05-01 08:01 31.89051 35.08429 11135 ft 367 kts 114°
2026-05-01 08:01 31.87996 35.11280 11363 ft 382 kts 114°
2026-05-01 08:02 31.85851 35.17070 12250 ft 397 kts 115°
2026-05-01 08:02 31.84763 35.20002 12798 ft 401 kts 115°
2026-05-01 08:03 31.82488 35.26125 13909 ft 410 kts 114°
2026-05-01 08:03 31.81333 35.29232 14466 ft 414 kts 114°
2026-05-01 08:03 31.78998 35.35352 15596 ft 421 kts 120°
2026-05-01 08:04 31.75575 35.40547 16597 ft 424 kts 140°
2026-05-01 08:04 31.70962 35.44073 17680 ft 422 kts 160°
2026-05-01 08:05 31.65599 35.45646 18745 ft 420 kts 179°
2026-05-01 08:05 31.62697 35.45616 19319 ft 418 kts 189°
2026-05-01 08:05 31.59827 35.45030 19876 ft 418 kts 196°
2026-05-01 08:06 31.54133 35.43502 21091 ft 422 kts 197°
2026-05-01 08:06 31.48410 35.42002 22194 ft 427 kts 197°
2026-05-01 08:07 31.42569 35.40497 23203 ft 434 kts 197°
2026-05-01 08:07 31.36661 35.38990 24245 ft 439 kts 197°
2026-05-01 08:08 31.33708 35.38238 24719 ft 442 kts 197°
2026-05-01 08:08 31.27618 35.36695 25624 ft 448 kts 197°
2026-05-01 08:09 31.21486 35.35145 26525 ft 452 kts 197°
2026-05-01 08:09 31.18379 35.34360 26948 ft 455 kts 198°
2026-05-01 08:09 31.15249 35.33571 27335 ft 458 kts 197°
2026-05-01 08:10 31.08900 35.31971 28110 ft 463 kts 197°
2026-05-01 08:10 31.02494 35.30360 28821 ft 468 kts 198°
2026-05-01 08:11 30.95993 35.28728 29527 ft 472 kts 198°
2026-05-01 08:11 30.89452 35.27087 30182 ft 476 kts 198°
2026-05-01 08:12 30.82926 35.25455 31055 ft 475 kts 198°
2026-05-01 08:12 30.79619 35.24629 31598 ft 472 kts 198°
2026-05-01 08:12 30.73108 35.23002 32521 ft 469 kts 198°
2026-05-01 08:13 30.69898 35.22201 32989 ft 467 kts 198°
2026-05-01 08:13 30.66636 35.21388 33482 ft 465 kts 198°
2026-05-01 08:13 30.60255 35.19797 34203 ft 464 kts 198°
2026-05-01 08:14 30.57021 35.18991 34517 ft 463 kts 198°
2026-05-01 08:14 30.53814 35.18192 34802 ft 464 kts 198°
2026-05-01 08:14 30.50592 35.17391 35118 ft 463 kts 198°
2026-05-01 08:14 30.47413 35.16601 35414 ft 463 kts 198°
2026-05-01 08:15 30.44210 35.15806 35739 ft 461 kts 198°
2026-05-01 08:15 30.37878 35.14234 35979 ft 463 kts 198°
2026-05-01 08:16 30.31531 35.12662 35979 ft 462 kts 198°
2026-05-01 08:16 30.25191 35.11093 35984 ft 462 kts 198°
2026-05-01 08:17 30.18845 35.09524 35986 ft 463 kts 198°
2026-05-01 08:17 30.12474 35.07953 35989 ft 462 kts 198°
2026-05-01 08:18 30.06124 35.06391 35986 ft 462 kts 197°
2026-05-01 08:19 29.93288 35.03894 35994 ft 465 kts 195°
2026-05-01 08:19 29.86876 35.02657 35996 ft 464 kts 195°
2026-05-01 08:20 29.80445 35.01427 35988 ft 463 kts 196°
2026-05-01 08:20 29.74057 35.00186 35978 ft 464 kts 196°
2026-05-01 08:21 29.67653 34.98922 35969 ft 462 kts 198°
2026-05-01 08:21 29.61729 34.96397 35973 ft 450 kts 215°
2026-05-01 08:22 29.56776 34.92189 35978 ft 443 kts 222°
2026-05-01 08:22 29.51534 34.88501 35989 ft 450 kts 213°
2026-05-01 08:23 29.45895 34.85427 35999 ft 453 kts 209°
2026-05-01 08:23 29.40109 34.82657 36002 ft 456 kts 207°
2026-05-01 08:23 29.37197 34.81347 36267 ft 457 kts 207°
2026-05-01 08:24 29.34285 34.80069 36085 ft 457 kts 206°
2026-05-01 08:24 29.28678 34.77667 35981 ft 452 kts 206°
2026-05-01 08:25 29.23071 34.75308 35956 ft 455 kts 206°
2026-05-01 08:25 29.17403 34.72953 35957 ft 455 kts 206°
2026-05-01 08:26 29.11762 34.70626 35963 ft 453 kts 205°
2026-05-01 08:26 29.06140 34.68314 35974 ft 456 kts 206°
2026-05-01 08:27 29.00349 34.66357 35983 ft 460 kts 199°
2026-05-01 08:27 28.94402 34.64817 35983 ft 460 kts 199°
2026-05-01 08:28 28.88491 34.63292 35989 ft 460 kts 199°
2026-05-01 08:28 28.82525 34.61752 36006 ft 461 kts 199°
2026-05-01 08:29 28.76542 34.60209 36010 ft 460 kts 199°
2026-05-01 08:29 28.70568 34.58670 36005 ft 460 kts 199°
2026-05-01 08:30 28.64578 34.57127 35988 ft 462 kts 199°
2026-05-01 08:30 28.58471 34.55557 35969 ft 461 kts 199°
2026-05-01 08:31 28.52326 34.53979 35935 ft 460 kts 199°
2026-05-01 08:31 28.46137 34.52449 35924 ft 462 kts 198°
2026-05-01 08:32 28.39881 34.50948 36020 ft 466 kts 198°
2026-05-01 08:32 28.36711 34.50188 36405 ft 463 kts 199°
2026-05-01 08:32 28.33546 34.49430 36777 ft 460 kts 199°
2026-05-01 08:32 28.30449 34.48685 36904 ft 462 kts 199°
2026-05-01 08:33 28.27381 34.47948 36910 ft 461 kts 199°
2026-05-01 08:33 28.21228 34.46472 36906 ft 460 kts 199°
2026-05-01 08:34 28.15096 34.45002 36906 ft 460 kts 199°
2026-05-01 08:34 28.09483 34.43656 36901 ft 461 kts 199°
2026-05-01 08:35 28.04008 34.42346 36895 ft 460 kts 199°
2026-05-01 08:35 27.98609 34.40223 36900 ft 447 kts 214°
2026-05-01 08:36 27.93823 34.36820 36900 ft 443 kts 220°
2026-05-01 08:36 27.89168 34.33287 36911 ft 441 kts 219°
2026-05-01 08:37 27.84352 34.29636 36918 ft 444 kts 219°
2026-05-01 08:37 27.79437 34.25920 36914 ft 441 kts 219°
2026-05-01 08:38 27.74616 34.22276 36910 ft 443 kts 219°
2026-05-01 08:38 27.69709 34.18574 36907 ft 442 kts 219°
2026-05-01 08:39 27.65032 34.15049 36906 ft 441 kts 219°
2026-05-01 08:39 27.60087 34.11325 36899 ft 444 kts 219°
2026-05-01 08:40 27.52434 34.05572 36916 ft 443 kts 220°
2026-05-01 08:40 27.47589 34.01934 36926 ft 444 kts 219°
2026-05-01 08:41 27.42580 33.98178 36922 ft 443 kts 220°
2026-05-01 08:41 27.37602 33.94450 36914 ft 442 kts 219°
2026-05-01 08:42 27.32595 33.90703 36918 ft 444 kts 220°
2026-05-01 08:42 27.27854 33.87160 36917 ft 443 kts 219°
2026-05-01 08:43 27.23332 33.82859 36930 ft 433 kts 234°
2026-05-01 08:43 27.20330 33.77504 36919 ft 424 kts 250°
2026-05-01 08:44 27.18901 33.71543 36919 ft 421 kts 264°
2026-05-01 08:44 27.18994 33.65389 36941 ft 420 kts 275°
2026-05-01 08:45 27.19530 33.59143 36944 ft 423 kts 275°
2026-05-01 08:45 27.20057 33.52975 36961 ft 421 kts 274°
2026-05-01 08:46 27.20584 33.46752 36972 ft 422 kts 274°
2026-05-01 08:46 27.21091 33.40698 36986 ft 421 kts 275°
2026-05-01 08:47 27.21617 33.34407 36998 ft 420 kts 274°
2026-05-01 08:47 27.22158 33.27877 37029 ft 423 kts 274°
2026-05-01 08:48 27.22697 33.21345 37036 ft 421 kts 274°
2026-05-01 08:48 27.23230 33.14850 37023 ft 422 kts 274°
2026-05-01 08:49 27.23760 33.08349 37036 ft 421 kts 275°
2026-05-01 08:49 27.24290 33.01815 37034 ft 422 kts 274°
2026-05-01 08:50 27.24817 32.95279 37027 ft 421 kts 274°
2026-05-01 08:50 27.25341 32.88734 37024 ft 422 kts 274°
2026-05-01 08:51 27.25861 32.82211 37011 ft 421 kts 275°
2026-05-01 08:51 27.26378 32.75674 37001 ft 422 kts 275°
2026-05-01 08:52 27.26894 32.69120 36986 ft 422 kts 275°
2026-05-01 08:52 27.27405 32.62590 37012 ft 421 kts 275°
2026-05-01 08:53 27.27914 32.56050 37032 ft 423 kts 275°
2026-05-01 08:53 27.27597 32.49498 37029 ft 423 kts 258°
2026-05-01 08:54 27.25210 32.43367 37037 ft 435 kts 241°
2026-05-01 08:54 27.20997 32.38438 37022 ft 451 kts 223°
2026-05-01 08:55 27.15228 32.35289 37012 ft 468 kts 202°
2026-05-01 08:55 27.11957 32.34627 37038 ft 481 kts 191°
2026-05-01 08:55 27.08528 32.34663 37051 ft 495 kts 180°
2026-05-01 08:56 27.05108 32.35446 37039 ft 508 kts 169°
2026-05-01 08:56 27.01759 32.36690 37038 ft 510 kts 168°
2026-05-01 08:56 26.95063 32.39124 37028 ft 510 kts 169°
2026-05-01 08:57 26.88291 32.41435 37026 ft 508 kts 170°
2026-05-01 08:57 26.81536 32.43654 37024 ft 508 kts 170°
2026-05-01 08:58 26.74764 32.45831 37031 ft 506 kts 171°
2026-05-01 08:58 26.68020 32.47972 37024 ft 504 kts 171°
2026-05-01 08:59 26.61288 32.50090 37039 ft 507 kts 171°
2026-05-01 08:59 26.54523 32.52211 37018 ft 507 kts 171°
2026-05-01 09:00 26.47790 32.54315 37031 ft 507 kts 171°
2026-05-01 09:00 26.40939 32.56451 37012 ft 507 kts 171°
2026-05-01 09:01 26.34124 32.58572 37006 ft 507 kts 171°
2026-05-01 09:01 26.27392 32.60664 37004 ft 506 kts 171°
2026-05-01 09:02 26.20632 32.62761 36981 ft 506 kts 172°
2026-05-01 09:02 26.13865 32.64860 36982 ft 504 kts 171°
2026-05-01 09:03 26.07137 32.66947 36945 ft 504 kts 172°
2026-05-01 09:03 26.00437 32.69017 36953 ft 502 kts 172°
2026-05-01 09:04 25.93754 32.71079 36949 ft 502 kts 172°
2026-05-01 09:04 25.86962 32.73170 36950 ft 504 kts 172°
2026-05-01 09:05 25.80258 32.75148 36946 ft 497 kts 178°
2026-05-01 09:05 25.73441 32.75590 36946 ft 481 kts 193°
2026-05-01 09:06 25.67097 32.74145 36957 ft 463 kts 205°
2026-05-01 09:06 25.61018 32.72039 36960 ft 464 kts 206°
2026-05-01 09:07 25.55057 32.69969 36968 ft 466 kts 205°
2026-05-01 09:07 25.48935 32.67849 36970 ft 464 kts 206°
2026-05-01 09:08 25.42771 32.65715 36965 ft 468 kts 206°
2026-05-01 09:08 25.36582 32.63577 36963 ft 466 kts 205°
2026-05-01 09:09 25.30390 32.61440 36960 ft 469 kts 206°
2026-05-01 09:09 25.24156 32.59290 36954 ft 467 kts 206°
2026-05-01 09:10 25.17956 32.57154 36956 ft 468 kts 206°
2026-05-01 09:10 25.11750 32.55020 36959 ft 468 kts 206°
2026-05-01 09:11 25.05559 32.52892 36961 ft 469 kts 206°
2026-05-01 09:11 24.99307 32.50747 36966 ft 469 kts 206°
2026-05-01 09:12 24.93111 32.48626 36971 ft 469 kts 206°
2026-05-01 09:12 24.86855 32.46484 36973 ft 468 kts 206°
2026-05-01 09:13 24.80647 32.44362 36979 ft 468 kts 206°
2026-05-01 09:13 24.74425 32.42234 36986 ft 471 kts 206°
2026-05-01 09:14 24.68154 32.40090 36990 ft 469 kts 206°
2026-05-01 09:14 24.61939 32.37899 36997 ft 470 kts 207°
2026-05-01 09:15 24.55700 32.35698 37003 ft 471 kts 207°
2026-05-01 09:15 24.49442 32.33495 37028 ft 472 kts 206°
2026-05-01 09:16 24.43219 32.31308 37029 ft 473 kts 206°
2026-05-01 09:17 24.33785 32.27998 37036 ft 474 kts 206°
2026-05-01 09:17 24.24401 32.24708 37036 ft 475 kts 207°
2026-05-01 09:18 24.14994 32.21419 37037 ft 472 kts 207°
2026-05-01 09:19 24.05590 32.18134 37034 ft 474 kts 207°
2026-05-01 09:20 23.96157 32.14846 37036 ft 474 kts 207°
2026-05-01 09:21 23.83564 32.10463 37028 ft 478 kts 207°
2026-05-01 09:21 23.74193 32.07222 37037 ft 474 kts 207°
2026-05-01 09:22 23.61585 32.02841 37031 ft 477 kts 207°
2026-05-01 09:23 23.52038 31.99535 37026 ft 476 kts 207°
2026-05-01 09:24 23.42618 31.96279 37024 ft 476 kts 207°
2026-05-01 09:25 23.29995 31.91936 37010 ft 480 kts 206°
2026-05-01 09:26 23.20369 31.88893 37002 ft 484 kts 206°
2026-05-01 09:26 23.10780 31.85871 37005 ft 484 kts 205°
2026-05-01 09:27 23.01130 31.82828 37008 ft 483 kts 206°
2026-05-01 09:28 22.94714 31.80802 37004 ft 487 kts 205°
2026-05-01 09:28 22.88350 31.78797 36994 ft 483 kts 206°
2026-05-01 09:29 22.78932 31.75830 36990 ft 486 kts 205°
2026-05-01 09:30 22.69558 31.72882 36985 ft 485 kts 205°
2026-05-01 09:30 22.60199 31.69941 36978 ft 486 kts 205°
2026-05-01 09:31 22.53863 31.67952 36976 ft 486 kts 205°
2026-05-01 09:31 22.47885 31.65274 36965 ft 467 kts 220°
2026-05-01 09:32 22.45288 31.63331 36963 ft 459 kts 227°
2026-05-01 09:32 22.41037 31.58456 36962 ft 442 kts 242°
2026-05-01 09:32 22.39330 31.55775 36963 ft 443 kts 239°
2026-05-01 09:33 22.37236 31.53301 36963 ft 454 kts 230°
2026-05-01 09:33 22.34800 31.51239 36963 ft 463 kts 221°
2026-05-01 09:33 22.29037 31.48398 36963 ft 487 kts 204°
2026-05-01 09:34 22.25787 31.47681 36964 ft 498 kts 195°
2026-05-01 09:34 22.15303 31.48778 36967 ft 527 kts 168°
2026-05-01 09:35 22.05558 31.54896 36982 ft 546 kts 144°
2026-05-01 09:36 21.99493 31.59717 36992 ft 541 kts 153°
2026-05-01 09:36 21.92963 31.63581 36994 ft 534 kts 160°
2026-05-01 09:37 21.86162 31.66805 36994 ft 530 kts 164°
2026-05-01 09:37 21.75812 31.70943 37007 ft 527 kts 167°
2026-05-01 09:38 21.65428 31.74658 37009 ft 524 kts 168°
2026-05-01 09:39 21.55033 31.78196 37002 ft 525 kts 168°
2026-05-01 09:39 21.48106 31.80287 36935 ft 516 kts 179°
2026-05-01 09:40 21.44914 31.80520 36963 ft 502 kts 187°
2026-05-01 09:40 21.38038 31.79800 37004 ft 498 kts 195°
2026-05-01 09:41 21.31247 31.78774 37007 ft 498 kts 195°
2026-05-01 09:41 21.21077 31.77239 37011 ft 499 kts 195°
2026-05-01 09:42 21.14286 31.76216 37017 ft 495 kts 195°
2026-05-01 09:43 21.00607 31.74157 37031 ft 496 kts 195°
2026-05-01 09:43 20.93753 31.73126 37029 ft 496 kts 195°
2026-05-01 09:44 20.83508 31.71587 37019 ft 497 kts 195°
2026-05-01 09:45 20.76666 31.70561 37014 ft 496 kts 195°
2026-05-01 09:45 20.66483 31.69034 37008 ft 498 kts 194°
2026-05-01 09:46 20.59610 31.68006 37006 ft 495 kts 194°
2026-05-01 09:46 20.52746 31.66978 37004 ft 498 kts 194°
2026-05-01 09:47 20.45925 31.65959 37001 ft 496 kts 194°
2026-05-01 09:47 20.39039 31.64930 36995 ft 499 kts 194°
2026-05-01 09:48 20.32206 31.63911 36989 ft 498 kts 194°
2026-05-01 09:48 20.25360 31.62891 36982 ft 497 kts 194°
2026-05-01 09:49 20.18574 31.61880 36980 ft 498 kts 194°
2026-05-01 09:49 20.11960 31.60896 36977 ft 498 kts 194°
2026-05-01 09:50 20.05066 31.59871 36979 ft 498 kts 194°
2026-05-01 09:50 19.98219 31.58854 36974 ft 498 kts 194°
2026-05-01 09:51 19.91325 31.57830 36976 ft 498 kts 194°
2026-05-01 09:51 19.84487 31.56816 36975 ft 497 kts 194°
2026-05-01 09:52 19.77578 31.55792 36972 ft 497 kts 194°
2026-05-01 09:52 19.71077 31.54829 36974 ft 498 kts 194°
2026-05-01 09:53 19.64779 31.53897 36977 ft 497 kts 194°
2026-05-01 09:53 19.57999 31.52895 36979 ft 497 kts 193°
2026-05-01 09:54 19.51210 31.51892 36979 ft 497 kts 193°
2026-05-01 09:54 19.44653 31.50924 36979 ft 498 kts 193°
2026-05-01 09:55 19.37900 31.49928 36977 ft 497 kts 193°
2026-05-01 09:55 19.31140 31.48931 36976 ft 497 kts 193°
2026-05-01 09:56 19.24333 31.47928 36978 ft 498 kts 193°
2026-05-01 09:56 19.17615 31.46940 36973 ft 496 kts 193°
2026-05-01 09:57 19.10808 31.45939 36972 ft 497 kts 193°
2026-05-01 09:57 19.04040 31.44945 36967 ft 496 kts 193°
2026-05-01 09:58 18.97337 31.43960 36964 ft 497 kts 193°
2026-05-01 09:58 18.90604 31.42972 36966 ft 497 kts 193°
2026-05-01 09:59 18.83887 31.41988 36960 ft 495 kts 193°
2026-05-01 09:59 18.77156 31.41002 36959 ft 496 kts 193°
2026-05-01 10:00 18.70423 31.40017 36958 ft 493 kts 193°
2026-05-01 10:00 18.63900 31.39062 36954 ft 495 kts 193°
2026-05-01 10:01 18.57186 31.38081 36959 ft 495 kts 193°
2026-05-01 10:01 18.50420 31.37093 36958 ft 493 kts 192°
2026-05-01 10:02 18.43723 31.36115 36963 ft 493 kts 192°
2026-05-01 10:02 18.37045 31.35141 36955 ft 494 kts 192°
2026-05-01 10:03 18.30350 31.34165 36965 ft 494 kts 192°
2026-05-01 10:03 18.23617 31.33184 36963 ft 493 kts 192°
2026-05-01 10:04 18.16947 31.32213 36957 ft 493 kts 192°
2026-05-01 10:04 18.10329 31.31251 36954 ft 492 kts 192°
2026-05-01 10:05 18.03576 31.30269 36950 ft 492 kts 192°
2026-05-01 10:05 17.96962 31.29308 36944 ft 492 kts 192°
2026-05-01 10:06 17.90194 31.28326 36952 ft 492 kts 192°
2026-05-01 10:06 17.83469 31.27350 36954 ft 491 kts 192°
2026-05-01 10:07 17.76787 31.26382 36959 ft 491 kts 192°
2026-05-01 10:07 17.70058 31.25407 36961 ft 490 kts 191°
2026-05-01 10:08 17.60022 31.23954 36971 ft 491 kts 191°
2026-05-01 10:09 17.53367 31.22992 36974 ft 489 kts 191°
2026-05-01 10:09 17.46708 31.22029 36981 ft 490 kts 191°
2026-05-01 10:10 17.40121 31.21078 36982 ft 490 kts 191°
2026-05-01 10:10 17.30165 31.19641 36988 ft 489 kts 191°
2026-05-01 10:11 17.23569 31.18690 36987 ft 488 kts 191°
2026-05-01 10:11 17.17016 31.17745 36990 ft 488 kts 191°
2026-05-01 10:12 17.10465 31.16802 36994 ft 488 kts 191°
2026-05-01 10:13 17.00653 31.15389 36999 ft 487 kts 191°
2026-05-01 10:13 16.94058 31.14440 37003 ft 487 kts 191°
2026-05-01 10:14 16.84115 31.13010 37006 ft 488 kts 191°
2026-05-01 10:14 16.77746 31.12102 37013 ft 488 kts 191°
2026-05-01 10:15 16.70947 31.11122 37027 ft 488 kts 191°
2026-05-01 10:15 16.64127 31.10143 37033 ft 489 kts 191°
2026-05-01 10:16 16.57289 31.09163 37037 ft 487 kts 191°
2026-05-01 10:17 16.46998 31.07688 37042 ft 488 kts 191°
2026-05-01 10:17 16.36727 31.06217 37047 ft 488 kts 191°
2026-05-01 10:18 16.26397 31.04738 37047 ft 488 kts 191°
2026-05-01 10:19 16.19528 31.03754 37045 ft 488 kts 191°
2026-05-01 10:19 16.12651 31.02768 37042 ft 487 kts 191°
2026-05-01 10:20 16.02419 31.01306 37040 ft 488 kts 191°
2026-05-01 10:20 15.95613 31.00334 37037 ft 488 kts 191°
2026-05-01 10:21 15.85301 30.98863 37030 ft 488 kts 190°
2026-05-01 10:22 15.75008 30.97395 37023 ft 488 kts 190°
2026-05-01 10:23 15.64780 30.95937 37026 ft 488 kts 190°
2026-05-01 10:23 15.54476 30.94468 37021 ft 488 kts 190°
2026-05-01 10:24 15.40828 30.92524 37010 ft 489 kts 190°
2026-05-01 10:25 15.27141 30.90570 37011 ft 489 kts 190°
2026-05-01 10:26 15.20371 30.89604 37016 ft 489 kts 190°
2026-05-01 10:27 15.06670 30.87736 37013 ft 490 kts 189°
2026-05-01 10:28 14.96321 30.86443 37008 ft 488 kts 189°
2026-05-01 10:28 14.86070 30.85153 36999 ft 489 kts 189°
2026-05-01 10:29 14.75825 30.83861 36988 ft 489 kts 189°
2026-05-01 10:30 14.62120 30.82131 36975 ft 488 kts 189°
2026-05-01 10:31 14.48449 30.80408 36975 ft 489 kts 188°
2026-05-01 10:32 14.38146 30.79110 36977 ft 489 kts 188°
2026-05-01 10:33 14.24400 30.77380 36979 ft 488 kts 188°
2026-05-01 10:34 14.14069 30.76081 36978 ft 488 kts 188°
2026-05-01 10:34 14.07211 30.75220 36979 ft 489 kts 188°
2026-05-01 10:35 13.96964 30.73934 36980 ft 489 kts 188°
2026-05-01 10:35 13.90074 30.73069 36962 ft 489 kts 188°
2026-05-01 10:36 13.79737 30.71774 36950 ft 489 kts 188°
2026-05-01 10:37 13.72863 30.70910 36948 ft 489 kts 188°
2026-05-01 10:37 13.62586 30.69622 36964 ft 489 kts 188°
2026-05-01 10:38 13.55694 30.68760 36977 ft 490 kts 188°
2026-05-01 10:38 13.48830 30.67902 36988 ft 489 kts 188°
2026-05-01 10:39 13.41931 30.67041 36986 ft 489 kts 188°
2026-05-01 10:39 13.35076 30.66185 36987 ft 489 kts 188°
2026-05-01 10:40 13.28138 30.65320 36990 ft 489 kts 188°
2026-05-01 10:40 13.21268 30.64463 36990 ft 490 kts 188°
2026-05-01 10:41 13.14410 30.63609 36985 ft 490 kts 188°
2026-05-01 10:42 13.04096 30.62326 36984 ft 488 kts 188°
2026-05-01 10:42 12.97195 30.61467 36981 ft 489 kts 188°
2026-05-01 10:43 12.90330 30.60614 36977 ft 491 kts 188°
2026-05-01 10:43 12.83443 30.59758 36975 ft 490 kts 188°
2026-05-01 10:44 12.76536 30.58904 36972 ft 490 kts 188°
2026-05-01 10:44 12.69689 30.58055 36978 ft 490 kts 188°
2026-05-01 10:45 12.62760 30.57193 36973 ft 490 kts 188°
2026-05-01 10:45 12.55874 30.56338 36979 ft 491 kts 188°
2026-05-01 10:46 12.48946 30.55479 36985 ft 491 kts 188°
2026-05-01 10:46 12.42048 30.54625 36985 ft 491 kts 188°
2026-05-01 10:47 12.35118 30.53768 36985 ft 491 kts 188°
2026-05-01 10:47 12.28215 30.52914 36995 ft 491 kts 188°
2026-05-01 10:48 12.21342 30.52067 36996 ft 490 kts 188°
2026-05-01 10:48 12.14416 30.51211 37001 ft 490 kts 188°
2026-05-01 10:49 12.07499 30.50355 37004 ft 490 kts 188°
2026-05-01 10:49 12.00615 30.49507 37007 ft 490 kts 188°
2026-05-01 10:50 11.93709 30.48656 37016 ft 490 kts 188°
2026-05-01 10:50 11.86796 30.47804 37015 ft 490 kts 188°
2026-05-01 10:51 11.80139 30.46981 37014 ft 490 kts 188°
2026-05-01 10:51 11.73295 30.46136 37018 ft 489 kts 188°
2026-05-01 10:52 11.66418 30.45288 37016 ft 489 kts 188°
2026-05-01 10:52 11.59489 30.44435 37016 ft 489 kts 188°
2026-05-01 10:53 11.52662 30.43595 37018 ft 490 kts 188°
2026-05-01 10:53 11.45789 30.42749 37029 ft 490 kts 188°
2026-05-01 10:54 11.38881 30.41900 37049 ft 489 kts 188°
2026-05-01 10:54 11.32029 30.41059 37055 ft 487 kts 188°
2026-05-01 10:55 11.25188 30.40219 37073 ft 487 kts 188°
2026-05-01 10:55 11.18348 30.39380 37057 ft 486 kts 187°
2026-05-01 10:56 11.11505 30.38541 37033 ft 487 kts 188°
2026-05-01 10:56 11.04654 30.37701 37000 ft 488 kts 187°
2026-05-01 10:57 10.97779 30.36858 36973 ft 489 kts 187°
2026-05-01 10:57 10.90935 30.36020 36964 ft 487 kts 188°
2026-05-01 10:58 10.84064 30.35178 36955 ft 487 kts 188°
2026-05-01 10:58 10.77261 30.34345 36947 ft 486 kts 187°
2026-05-01 10:59 10.70421 30.33509 36939 ft 486 kts 187°
2026-05-01 10:59 10.63811 30.32700 36934 ft 489 kts 187°
2026-05-01 11:00 10.56932 30.31859 36931 ft 489 kts 187°
2026-05-01 11:00 10.50352 30.31056 36928 ft 487 kts 187°
2026-05-01 11:01 10.43442 30.30212 36924 ft 487 kts 188°
2026-05-01 11:01 10.36613 30.29378 36922 ft 487 kts 188°
2026-05-01 11:02 10.29736 30.28540 36920 ft 487 kts 188°
2026-05-01 11:02 10.22942 30.27711 36920 ft 487 kts 188°
2026-05-01 11:03 10.16056 30.26872 36918 ft 487 kts 188°
2026-05-01 11:03 10.09216 30.26040 36917 ft 487 kts 187°
2026-05-01 11:04 10.02333 30.25206 36913 ft 487 kts 188°
2026-05-01 11:04 9.95495 30.24374 36901 ft 487 kts 188°
2026-05-01 11:05 9.88679 30.23544 36895 ft 486 kts 188°
2026-05-01 11:05 9.81868 30.22717 36893 ft 487 kts 187°
2026-05-01 11:06 9.74993 30.21882 36890 ft 486 kts 187°
2026-05-01 11:06 9.68205 30.21057 36889 ft 486 kts 187°
2026-05-01 11:07 9.58006 30.19816 36890 ft 485 kts 187°
2026-05-01 11:07 9.51194 30.19042 36891 ft 485 kts 187°
2026-05-01 11:08 9.44766 30.18339 37061 ft 490 kts 187°
2026-05-01 11:08 9.38069 30.17606 37895 ft 486 kts 187°
2026-05-01 11:09 9.34733 30.17241 37898 ft 487 kts 187°
2026-05-01 11:09 9.28058 30.16509 37907 ft 484 kts 187°
2026-05-01 11:10 9.18023 30.15408 37900 ft 484 kts 186°
2026-05-01 11:10 9.11393 30.14681 37902 ft 483 kts 186°
2026-05-01 11:11 9.04959 30.13976 37910 ft 483 kts 186°
2026-05-01 11:11 8.98545 30.13272 37906 ft 483 kts 186°
2026-05-01 11:12 8.91900 30.12544 37911 ft 483 kts 186°
2026-05-01 11:12 8.85294 30.11823 37915 ft 484 kts 186°
2026-05-01 11:13 8.78666 30.11097 37910 ft 483 kts 187°
2026-05-01 11:13 8.72070 30.10374 37909 ft 483 kts 186°
2026-05-01 11:14 8.65483 30.09652 37908 ft 482 kts 186°
2026-05-01 11:14 8.58967 30.08939 37909 ft 481 kts 186°
2026-05-01 11:15 8.52439 30.08225 37903 ft 482 kts 186°
2026-05-01 11:15 8.45900 30.07510 37901 ft 482 kts 187°
2026-05-01 11:16 8.39317 30.06791 37899 ft 482 kts 187°
2026-05-01 11:16 8.32993 30.06100 37900 ft 481 kts 186°
2026-05-01 11:17 8.26478 30.05389 37903 ft 480 kts 186°
2026-05-01 11:17 8.19983 30.04680 37903 ft 478 kts 186°
2026-05-01 11:18 8.13455 30.03967 37898 ft 479 kts 186°
2026-05-01 11:18 8.06899 30.03252 37890 ft 480 kts 186°
2026-05-01 11:19 8.00366 30.02540 37888 ft 480 kts 186°
2026-05-01 11:19 7.93791 30.01823 37885 ft 478 kts 186°
2026-05-01 11:20 7.87251 30.01110 37887 ft 480 kts 186°
2026-05-01 11:20 7.80674 30.00394 37885 ft 480 kts 186°
2026-05-01 11:21 7.74161 29.99685 37885 ft 478 kts 186°
2026-05-01 11:21 7.67630 29.98977 37886 ft 480 kts 186°
2026-05-01 11:22 7.61082 29.98266 37884 ft 479 kts 186°
2026-05-01 11:22 7.54551 29.97555 37888 ft 479 kts 186°
2026-05-01 11:23 7.47984 29.96842 37887 ft 481 kts 186°
2026-05-01 11:23 7.41471 29.96133 37889 ft 480 kts 186°
2026-05-01 11:24 7.35144 29.95444 37887 ft 482 kts 186°
2026-05-01 11:25 7.25691 29.94463 37886 ft 482 kts 187°
2026-05-01 11:25 7.16207 29.93404 37888 ft 482 kts 186°
2026-05-01 11:26 7.06687 29.92357 37898 ft 482 kts 186°
2026-05-01 11:27 7.00467 29.91678 37905 ft 482 kts 186°
2026-05-01 11:27 6.94262 29.91003 37911 ft 481 kts 186°
2026-05-01 11:28 6.87931 29.90315 37913 ft 483 kts 186°
2026-05-01 11:28 6.81659 29.89634 37908 ft 482 kts 186°
2026-05-01 11:29 6.72150 29.88602 37908 ft 484 kts 186°
2026-05-01 11:30 6.62541 29.87561 37912 ft 485 kts 186°
2026-05-01 11:30 6.56236 29.86877 37913 ft 486 kts 186°
2026-05-01 11:31 6.49914 29.86193 37915 ft 484 kts 187°
2026-05-01 11:31 6.43558 29.85505 37917 ft 486 kts 186°
2026-05-01 11:32 6.37211 29.84818 37916 ft 486 kts 186°
2026-05-01 11:32 6.30825 29.84126 37923 ft 486 kts 187°
2026-05-01 11:33 6.24433 29.83434 37924 ft 487 kts 187°
2026-05-01 11:33 6.18065 29.82746 37927 ft 487 kts 186°
2026-05-01 11:34 6.11609 29.82047 37928 ft 488 kts 186°
2026-05-01 11:34 6.05218 29.81356 37927 ft 487 kts 186°
2026-05-01 11:35 5.98806 29.80663 37929 ft 488 kts 186°
2026-05-01 11:35 5.92399 29.79971 37931 ft 490 kts 186°
2026-05-01 11:36 5.85984 29.79278 37937 ft 489 kts 186°
2026-05-01 11:36 5.79648 29.78593 37948 ft 489 kts 186°
2026-05-01 11:37 5.73272 29.77904 37950 ft 489 kts 186°
2026-05-01 11:37 5.66836 29.77210 37947 ft 489 kts 186°
2026-05-01 11:38 5.60448 29.76520 37950 ft 489 kts 186°
2026-05-01 11:38 5.54112 29.75836 37955 ft 489 kts 186°
2026-05-01 11:39 5.47700 29.75144 37952 ft 490 kts 186°
2026-05-01 11:39 5.41345 29.74460 37955 ft 491 kts 186°
2026-05-01 11:40 5.34825 29.73758 37959 ft 489 kts 186°
2026-05-01 11:40 5.28543 29.73082 37958 ft 491 kts 186°
2026-05-01 11:41 5.22216 29.72401 37963 ft 490 kts 186°
2026-05-01 11:41 5.15813 29.71711 37969 ft 490 kts 186°
2026-05-01 11:42 5.09387 29.71019 37974 ft 491 kts 186°
2026-05-01 11:42 5.02993 29.70330 37978 ft 490 kts 186°
2026-05-01 11:43 4.96678 29.69650 37984 ft 490 kts 186°
2026-05-01 11:43 4.90280 29.68961 37993 ft 491 kts 186°
2026-05-01 11:44 4.80693 29.67929 38002 ft 489 kts 186°
2026-05-01 11:44 4.74404 29.67252 38007 ft 489 kts 185°
2026-05-01 11:45 4.68041 29.66567 38010 ft 490 kts 186°
2026-05-01 11:45 4.61734 29.65892 38015 ft 491 kts 185°
2026-05-01 11:46 4.55320 29.65427 38020 ft 490 kts 183°
2026-05-01 11:46 4.48851 29.64983 38025 ft 492 kts 184°
2026-05-01 11:47 4.42424 29.64532 38028 ft 491 kts 184°
2026-05-01 11:47 4.35937 29.64074 38027 ft 491 kts 184°
2026-05-01 11:48 4.29590 29.63623 38027 ft 491 kts 184°
2026-05-01 11:48 4.23200 29.63169 38024 ft 491 kts 184°
2026-05-01 11:49 4.16875 29.62718 38020 ft 490 kts 184°
2026-05-01 11:49 4.10545 29.62267 38025 ft 492 kts 184°
2026-05-01 11:50 4.04107 29.61808 38033 ft 492 kts 184°
2026-05-01 11:50 3.97724 29.61353 38032 ft 493 kts 184°
2026-05-01 11:51 3.91392 29.60902 38038 ft 492 kts 184°
2026-05-01 11:51 3.84982 29.60444 38028 ft 491 kts 184°
2026-05-01 11:52 3.78558 29.59987 38034 ft 492 kts 184°
2026-05-01 11:52 3.72237 29.59536 38029 ft 492 kts 184°
2026-05-01 11:53 3.65783 29.59076 38027 ft 492 kts 183°
2026-05-01 11:53 3.59420 29.58623 38032 ft 492 kts 183°
2026-05-01 11:54 3.53098 29.58173 38031 ft 492 kts 183°
2026-05-01 11:54 3.46732 29.57721 38036 ft 492 kts 183°
2026-05-01 11:55 3.40352 29.57283 38036 ft 491 kts 183°
2026-05-01 11:55 3.33985 29.56856 38038 ft 491 kts 183°
2026-05-01 11:56 3.27706 29.56435 38040 ft 491 kts 183°
2026-05-01 11:56 3.21373 29.56010 38040 ft 491 kts 183°
2026-05-01 11:57 3.15018 29.55583 38050 ft 491 kts 183°
2026-05-01 11:57 3.08655 29.55155 38058 ft 492 kts 183°
2026-05-01 11:58 3.02266 29.54726 38066 ft 492 kts 183°
2026-05-01 11:59 2.92595 29.54077 38071 ft 491 kts 183°
2026-05-01 11:59 2.86169 29.53645 38066 ft 490 kts 183°
2026-05-01 12:00 2.76457 29.52993 38070 ft 489 kts 183°
2026-05-01 12:01 2.66849 29.52346 38058 ft 490 kts 183°
2026-05-01 12:01 2.60401 29.51913 38048 ft 491 kts 183°
2026-05-01 12:02 2.54027 29.51484 38057 ft 491 kts 183°
2026-05-01 12:02 2.47695 29.51059 38055 ft 491 kts 183°
2026-05-01 12:03 2.41279 29.50628 38063 ft 489 kts 182°
2026-05-01 12:03 2.34921 29.50202 38065 ft 489 kts 183°
2026-05-01 12:04 2.28596 29.49777 38072 ft 489 kts 183°
2026-05-01 12:04 2.22264 29.49352 38074 ft 489 kts 183°
2026-05-01 12:05 2.15882 29.49083 38074 ft 489 kts 181°
2026-05-01 12:05 2.06330 29.48782 38077 ft 488 kts 181°
2026-05-01 12:06 1.99967 29.48573 38072 ft 489 kts 181°
2026-05-01 12:06 1.93623 29.48362 38080 ft 489 kts 181°
2026-05-01 12:07 1.87230 29.47987 38078 ft 489 kts 184°
2026-05-01 12:07 1.80874 29.47453 38072 ft 488 kts 183°
2026-05-01 12:08 1.74561 29.46932 38072 ft 487 kts 183°
2026-05-01 12:08 1.68188 29.46414 38073 ft 489 kts 183°
2026-05-01 12:09 1.61829 29.45901 38076 ft 486 kts 183°
2026-05-01 12:09 1.55563 29.45398 38070 ft 485 kts 183°
2026-05-01 12:10 1.46083 29.44642 38065 ft 483 kts 183°
2026-05-01 12:11 1.36681 29.43891 38057 ft 482 kts 183°
2026-05-01 12:11 1.30383 29.43388 38054 ft 481 kts 183°
2026-05-01 12:12 1.24154 29.42890 38054 ft 480 kts 183°
2026-05-01 12:12 1.17832 29.42386 38055 ft 481 kts 183°
2026-05-01 12:13 1.11618 29.41920 38057 ft 479 kts 182°
2026-05-01 12:13 1.05421 29.41515 38057 ft 477 kts 182°
2026-05-01 12:14 0.99201 29.41108 38060 ft 477 kts 182°
2026-05-01 12:14 0.92955 29.40696 38066 ft 476 kts 182°
2026-05-01 12:15 0.86767 29.40288 38070 ft 477 kts 182°
2026-05-01 12:15 0.80520 29.39875 38077 ft 478 kts 182°
2026-05-01 12:16 0.74328 29.39464 38086 ft 478 kts 182°
2026-05-01 12:16 0.68059 29.39049 38091 ft 477 kts 182°
2026-05-01 12:17 0.61824 29.38636 38098 ft 477 kts 182°
2026-05-01 12:17 0.55560 29.38221 38094 ft 478 kts 182°
2026-05-01 12:18 0.49287 29.37805 38115 ft 477 kts 182°
2026-05-01 12:18 0.43043 29.37391 38104 ft 477 kts 182°
2026-05-01 12:19 0.36830 29.36978 38108 ft 477 kts 182°
2026-05-01 12:19 0.30610 29.36563 38102 ft 475 kts 182°
2026-05-01 12:20 0.24386 29.36150 38118 ft 477 kts 182°
2026-05-01 12:20 0.18170 29.35409 38135 ft 477 kts 186°
2026-05-01 12:21 0.12062 29.34580 38137 ft 476 kts 186°
2026-05-01 12:21 0.06091 29.33788 38152 ft 476 kts 186°
2026-05-01 12:22 -0.00266 29.32953 38162 ft 478 kts 186°
2026-05-01 12:22 -0.06666 29.32116 38176 ft 478 kts 186°
2026-05-01 12:23 -0.12953 29.31297 38196 ft 476 kts 186°
2026-05-01 12:23 -0.19246 29.30479 38213 ft 476 kts 186°
2026-05-01 12:24 -0.25527 29.29664 38234 ft 476 kts 186°
2026-05-01 12:24 -0.31801 29.28851 38239 ft 476 kts 186°
2026-05-01 12:25 -0.41375 29.28228 38230 ft 474 kts 181°
2026-05-01 12:26 -0.47829 29.27992 38231 ft 475 kts 180°
2026-05-01 12:26 -0.57463 29.27635 38214 ft 477 kts 180°
2026-05-01 12:27 -0.67195 29.27271 38199 ft 476 kts 181°
2026-05-01 12:28 -0.76933 29.26897 38173 ft 477 kts 181°
2026-05-01 12:29 -0.86602 29.26517 38186 ft 475 kts 181°
2026-05-01 12:29 -0.96293 29.26137 38207 ft 477 kts 181°
2026-05-01 12:30 -1.06019 29.25756 38219 ft 478 kts 181°
2026-05-01 12:31 -1.12492 29.25503 38219 ft 478 kts 181°
2026-05-01 12:31 -1.19033 29.25246 38222 ft 479 kts 181°
2026-05-01 12:32 -1.25522 29.24992 38222 ft 478 kts 181°
2026-05-01 12:32 -1.35123 29.24616 38259 ft 478 kts 181°
2026-05-01 12:33 -1.41525 29.24365 38314 ft 478 kts 181°
2026-05-01 12:33 -1.47834 29.24118 38397 ft 477 kts 181°
2026-05-01 12:34 -1.54085 29.24022 38401 ft 479 kts 179°
2026-05-01 12:34 -1.60362 29.24035 38328 ft 480 kts 179°
2026-05-01 12:35 -1.66659 29.24038 38266 ft 481 kts 179°
2026-05-01 12:35 -1.72939 29.24219 38231 ft 481 kts 176°
2026-05-01 12:36 -1.79307 29.24565 38219 ft 481 kts 176°
2026-05-01 12:36 -1.85558 29.24891 38218 ft 481 kts 176°
2026-05-01 12:37 -1.91905 29.25212 38215 ft 481 kts 176°
2026-05-01 12:37 -1.98345 29.25533 38224 ft 481 kts 176°
2026-05-01 12:38 -2.04845 29.25853 38227 ft 482 kts 176°
2026-05-01 12:38 -2.11341 29.26173 38238 ft 482 kts 176°
2026-05-01 12:39 -2.17860 29.26492 38245 ft 483 kts 176°
2026-05-01 12:39 -2.24353 29.26810 38261 ft 484 kts 176°
2026-05-01 12:40 -2.30861 29.27128 38260 ft 486 kts 176°
2026-05-01 12:40 -2.37414 29.27449 38278 ft 486 kts 176°
2026-05-01 12:41 -2.43979 29.27770 38298 ft 485 kts 176°
2026-05-01 12:41 -2.50566 29.28092 38319 ft 487 kts 176°
2026-05-01 12:42 -2.57177 29.28323 38300 ft 487 kts 179°
2026-05-01 12:42 -2.63691 29.28395 38269 ft 488 kts 177°
2026-05-01 12:43 -2.70163 29.28729 38249 ft 488 kts 176°
2026-05-01 12:43 -2.76393 29.29074 38239 ft 489 kts 176°
2026-05-01 12:44 -2.82208 29.29391 38232 ft 488 kts 176°
2026-05-01 12:45 -2.94952 29.30079 38204 ft 488 kts 176°
2026-05-01 12:45 -3.01303 29.30419 38194 ft 489 kts 176°
2026-05-01 12:46 -3.07791 29.30767 38178 ft 489 kts 176°
2026-05-01 12:46 -3.14182 29.31109 38164 ft 488 kts 176°
2026-05-01 12:47 -3.20472 29.31445 38140 ft 490 kts 176°
2026-05-01 12:47 -3.26605 29.31773 38132 ft 489 kts 176°
2026-05-01 12:48 -3.32778 29.32103 38102 ft 489 kts 176°
2026-05-01 12:48 -3.38927 29.32073 38125 ft 490 kts 182°
2026-05-01 12:49 -3.44996 29.31857 38152 ft 490 kts 181°
2026-05-01 12:49 -3.51150 29.31640 38163 ft 489 kts 181°
2026-05-01 12:50 -3.57258 29.31426 38169 ft 490 kts 181°
2026-05-01 12:50 -3.63321 29.31216 38167 ft 488 kts 181°
2026-05-01 12:51 -3.69280 29.31009 38163 ft 488 kts 181°
2026-05-01 12:52 -3.78512 29.30690 38169 ft 488 kts 181°
2026-05-01 12:52 -3.87741 29.30372 38143 ft 489 kts 181°
2026-05-01 12:53 -3.96959 29.30053 38139 ft 489 kts 181°
2026-05-01 12:54 -4.03184 29.29869 38125 ft 488 kts 181°
2026-05-01 12:54 -4.12504 29.29637 38119 ft 488 kts 181°
2026-05-01 12:55 -4.21638 29.29406 38112 ft 488 kts 181°
2026-05-01 12:56 -4.27811 29.29250 38106 ft 488 kts 181°
2026-05-01 12:56 -4.33821 29.29096 38110 ft 489 kts 181°
2026-05-01 12:57 -4.40055 29.28937 38107 ft 489 kts 181°
2026-05-01 12:57 -4.49352 29.28699 38101 ft 489 kts 181°
2026-05-01 12:58 -4.55618 29.28538 38109 ft 490 kts 181°
2026-05-01 12:59 -4.65106 29.28295 38099 ft 489 kts 181°
2026-05-01 12:59 -4.74510 29.28054 38095 ft 489 kts 181°
2026-05-01 13:00 -4.83975 29.27812 38112 ft 490 kts 181°
2026-05-01 13:01 -4.93411 29.27570 38103 ft 490 kts 181°
2026-05-01 13:02 -5.02854 29.27329 38103 ft 490 kts 181°
2026-05-01 13:07 -5.71133 29.25444 38116 ft 490 kts 181°
2026-05-01 13:08 -5.77453 29.25266 38092 ft 491 kts 181°
2026-05-01 13:08 -5.83786 29.25087 38082 ft 492 kts 181°
2026-05-01 13:09 -5.90093 29.24829 38070 ft 492 kts 184°
2026-05-01 13:09 -5.96360 29.24350 38063 ft 492 kts 184°
2026-05-01 13:10 -6.02711 29.23870 38063 ft 492 kts 184°
2026-05-01 13:10 -6.08867 29.23414 38073 ft 491 kts 184°
2026-05-01 13:11 -6.15356 29.22939 38080 ft 491 kts 184°
2026-05-01 13:11 -6.21772 29.22472 38089 ft 491 kts 184°
2026-05-01 13:12 -6.28291 29.21999 38098 ft 491 kts 184°
2026-05-01 13:12 -6.34822 29.21526 38106 ft 492 kts 184°
2026-05-01 13:13 -6.41377 29.21052 38111 ft 491 kts 184°
2026-05-01 13:13 -6.47891 29.20581 38121 ft 491 kts 184°
2026-05-01 13:14 -6.54382 29.20112 38124 ft 490 kts 183°
2026-05-01 13:14 -6.60830 29.19646 38135 ft 489 kts 183°
2026-05-01 13:15 -6.67373 29.19175 38144 ft 489 kts 183°
2026-05-01 13:15 -6.73884 29.18708 38155 ft 489 kts 183°
2026-05-01 13:16 -6.80431 29.18239 38179 ft 489 kts 183°
2026-05-01 13:16 -6.86848 29.17779 38238 ft 493 kts 183°
2026-05-01 13:17 -6.96518 29.17084 39398 ft 487 kts 183°
2026-05-01 13:17 -6.99665 29.16859 39722 ft 486 kts 183°
2026-05-01 13:18 -7.06152 29.16393 40198 ft 485 kts 183°
2026-05-01 13:18 -7.09378 29.16161 40209 ft 486 kts 183°
2026-05-01 13:18 -7.15810 29.15699 40201 ft 485 kts 183°
2026-05-01 13:19 -7.22236 29.15237 40205 ft 485 kts 183°
2026-05-01 13:20 -7.31970 29.14538 40195 ft 485 kts 183°
2026-05-01 13:20 -7.38455 29.14072 40186 ft 485 kts 183°
2026-05-01 13:21 -7.48008 29.13385 40179 ft 486 kts 183°
2026-05-01 13:21 -7.54462 29.12920 40172 ft 485 kts 183°
2026-05-01 13:22 -7.60980 29.12451 40170 ft 485 kts 183°
2026-05-01 13:22 -7.67478 29.11983 40167 ft 485 kts 183°
2026-05-01 13:23 -7.73480 29.11551 40159 ft 484 kts 183°
2026-05-01 13:23 -7.79805 29.11093 40147 ft 484 kts 183°
2026-05-01 13:24 -7.86099 29.10633 40135 ft 485 kts 183°
2026-05-01 13:25 -7.95735 29.09928 40114 ft 485 kts 183°
2026-05-01 13:25 -8.02242 29.09452 40104 ft 485 kts 183°
2026-05-01 13:26 -8.08585 29.08988 40111 ft 485 kts 183°
2026-05-01 13:26 -8.15077 29.08513 40112 ft 486 kts 183°
2026-05-01 13:27 -8.21545 29.08040 40121 ft 486 kts 183°
2026-05-01 13:27 -8.31170 29.07335 40119 ft 484 kts 183°
2026-05-01 13:28 -8.40577 29.06646 40106 ft 486 kts 183°
2026-05-01 13:29 -8.53331 29.05711 40089 ft 486 kts 183°
2026-05-01 13:31 -8.72662 29.04293 40079 ft 488 kts 183°
2026-05-01 13:32 -8.88883 29.03102 40072 ft 488 kts 183°
2026-05-01 13:33 -9.05403 29.01888 40074 ft 488 kts 184°
2026-05-01 13:34 -9.18272 29.00950 40094 ft 489 kts 184°
2026-05-01 13:35 -9.28171 29.00234 40115 ft 489 kts 184°
2026-05-01 13:36 -9.38047 28.99520 40128 ft 489 kts 183°
2026-05-01 13:36 -9.47667 28.98824 40136 ft 489 kts 183°
2026-05-01 13:37 -9.54268 28.98346 40145 ft 489 kts 184°
2026-05-01 13:37 -9.60888 28.97866 40159 ft 488 kts 184°
2026-05-01 13:38 -9.70800 28.97147 40174 ft 489 kts 184°
2026-05-01 13:39 -9.77405 28.96668 40182 ft 488 kts 184°
2026-05-01 13:39 -9.84009 28.96189 40189 ft 488 kts 183°
2026-05-01 13:40 -9.90586 28.95712 40193 ft 489 kts 184°
2026-05-01 13:40 -9.97230 28.95229 40192 ft 489 kts 184°
2026-05-01 13:41 -10.03823 28.94750 40192 ft 489 kts 184°
2026-05-01 13:41 -10.10455 28.94254 40188 ft 489 kts 184°
2026-05-01 13:42 -10.17059 28.93737 40181 ft 489 kts 184°
2026-05-01 13:42 -10.23669 28.93221 40180 ft 490 kts 184°
2026-05-01 13:43 -10.30311 28.92702 40175 ft 490 kts 184°
2026-05-01 13:43 -10.36872 28.92190 40172 ft 490 kts 184°
2026-05-01 13:44 -10.43549 28.91669 40169 ft 490 kts 184°
2026-05-01 13:44 -10.50167 28.91152 40168 ft 491 kts 184°
2026-05-01 13:45 -10.56803 28.90634 40172 ft 490 kts 184°
2026-05-01 13:45 -10.63444 28.90115 40170 ft 491 kts 184°
2026-05-01 13:46 -10.70121 28.89594 40175 ft 491 kts 184°
2026-05-01 13:46 -10.76810 28.89071 40168 ft 491 kts 184°
2026-05-01 13:47 -10.83494 28.88548 40176 ft 491 kts 184°
2026-05-01 13:47 -10.90190 28.88024 40173 ft 492 kts 184°
2026-05-01 13:48 -10.96569 28.87525 40172 ft 492 kts 184°
2026-05-01 13:48 -11.02832 28.87034 40174 ft 492 kts 184°
2026-05-01 13:49 -11.09506 28.86512 40167 ft 492 kts 184°
2026-05-01 13:49 -11.16171 28.85930 40168 ft 492 kts 185°
2026-05-01 13:50 -11.22875 28.85218 40166 ft 493 kts 185°
2026-05-01 13:50 -11.29527 28.84516 40161 ft 492 kts 185°
2026-05-01 13:51 -11.36209 28.83815 40165 ft 492 kts 185°
2026-05-01 13:51 -11.42854 28.83120 40174 ft 492 kts 185°
2026-05-01 13:52 -11.49570 28.82418 40173 ft 493 kts 185°
2026-05-01 13:52 -11.56224 28.81724 40171 ft 493 kts 185°
2026-05-01 13:53 -11.62922 28.81025 40169 ft 493 kts 185°
2026-05-01 13:53 -11.72934 28.79979 40163 ft 492 kts 185°
2026-05-01 13:54 -11.79606 28.79282 40159 ft 492 kts 185°
2026-05-01 13:54 -11.86259 28.78587 40153 ft 493 kts 185°
2026-05-01 13:55 -11.92982 28.77885 40143 ft 493 kts 185°
2026-05-01 13:55 -11.99696 28.77182 40134 ft 495 kts 185°
2026-05-01 13:56 -12.06408 28.76480 40137 ft 493 kts 185°
2026-05-01 13:56 -12.13114 28.75778 40141 ft 494 kts 185°
2026-05-01 13:57 -12.19786 28.75079 40148 ft 493 kts 185°
2026-05-01 13:57 -12.26489 28.74377 40157 ft 493 kts 185°
2026-05-01 13:58 -12.33176 28.73675 40158 ft 493 kts 186°
2026-05-01 13:58 -12.39902 28.72970 40166 ft 493 kts 186°
2026-05-01 13:59 -12.46570 28.72270 40175 ft 493 kts 186°
2026-05-01 13:59 -12.53317 28.71562 40189 ft 492 kts 186°
2026-05-01 14:00 -12.60057 28.70854 40186 ft 492 kts 186°
2026-05-01 14:00 -12.66739 28.70151 40199 ft 493 kts 186°
2026-05-01 14:01 -12.73421 28.69448 40202 ft 491 kts 185°
2026-05-01 14:01 -12.80145 28.68741 40206 ft 492 kts 186°
2026-05-01 14:02 -12.86873 28.68032 40196 ft 491 kts 186°
2026-05-01 14:02 -12.93544 28.67330 40191 ft 490 kts 186°
2026-05-01 14:03 -13.00251 28.66623 40193 ft 491 kts 186°
2026-05-01 14:03 -13.06930 28.65924 40194 ft 492 kts 186°
2026-05-01 14:04 -13.13611 28.65227 40185 ft 491 kts 186°
2026-05-01 14:04 -13.20033 28.64555 40190 ft 492 kts 186°
2026-05-01 14:05 -13.26706 28.63857 40187 ft 491 kts 186°
2026-05-01 14:05 -13.32761 28.63224 40189 ft 492 kts 186°
2026-05-01 14:06 -13.38282 28.62645 40195 ft 492 kts 186°
2026-05-01 14:06 -13.42929 28.62159 40194 ft 491 kts 186°